| time (UTC) | temp F | wind direction | speed MPH | gust MPH | rain 1hr in | rain 24hr in | rain mn in | humidity % | barometer mb |
| 20260831052713 | 62 | 0 | 0.0 | 0.0 | 0.00 | 0.25 | 0.25 | 78 | 1016.5 |
| 20260831051813 | 62 | 0 | 0.0 | 0.0 | 0.00 | 0.25 | 0.25 | 76 | 1016.5 |
| 20260831050913 | 62 | 180 | 0.0 | 1.0 | 0.00 | 0.25 | 0.25 | 76 | 1016.5 |
| 20260831050034 | 62 | 180 | 0.0 | 1.0 | 0.00 | 0.25 | 0.25 | 76 | 1016.5 |
| 20260831045413 | 62 | 0 | 0.0 | 0.0 | 0.00 | 0.25 | 0.25 | 76 | 1016.5 |
| 20260831044513 | 62 | 0 | 0.0 | 0.0 | 0.00 | 0.25 | 0.25 | 76 | 1016.5 |
| 20260831043634 | 63 | 0 | 0.0 | 1.0 | 0.00 | 0.25 | 0.25 | 74 | 1016.5 |
| 20260831042713 | 64 | 0 | 0.0 | 0.0 | 0.00 | 0.25 | 0.25 | 70 | 1016.5 |
| 20260831041813 | 65 | 0 | 0.0 | 0.0 | 0.00 | 0.25 | 0.25 | 67 | 1016.5 |
| 20260831040913 | 64 | 183 | 1.0 | 7.0 | 0.00 | 0.25 | 0.25 | 67 | 1016.5 |
| 20260831040013 | 64 | 190 | 1.0 | 7.0 | 0.00 | 0.25 | 0.25 | 68 | 1016.5 |
| 20260831035413 | 64 | 190 | 1.0 | 7.0 | 0.00 | 0.25 | 0.25 | 68 | 1016.5 |
| 20260831034513 | 64 | 190 | 1.0 | 6.0 | 0.00 | 0.25 | 0.25 | 70 | 1016.5 |
| 20260831033613 | 63 | 191 | 2.0 | 8.0 | 0.00 | 0.25 | 0.25 | 71 | 1016.5 |
| 20260831032713 | 63 | 193 | 3.0 | 13.0 | 0.00 | 0.25 | 0.25 | 75 | 1016.5 |
| 20260831031813 | 62 | 203 | 4.0 | 13.0 | 0.00 | 0.25 | 0.25 | 78 | 1016.5 |
| 20260831030913 | 62 | 209 | 1.0 | 7.0 | 0.00 | 0.25 | 0.25 | 82 | 1016.5 |
| 20260831030013 | 61 | 212 | 1.0 | 6.0 | 0.00 | 0.25 | 0.25 | 82 | 1016.5 |
| 20260831025434 | 62 | 90 | 0.0 | 2.0 | 0.00 | 0.25 | 0.25 | 82 | 1016.5 |
| 20260831024513 | 62 | 0 | 0.0 | 0.0 | 0.00 | 0.25 | 0.25 | 82 | 1016.5 |
| 20260831023613 | 62 | 0 | 0.0 | 0.0 | 0.00 | 0.25 | 0.25 | 81 | 1016.5 |
| 20260831022713 | 63 | 215 | 0.0 | 5.0 | 0.00 | 0.25 | 0.25 | 79 | 1016.5 |
| 20260831021813 | 64 | 229 | 0.0 | 5.0 | 0.00 | 0.26 | 0.25 | 76 | 1016.5 |
| 20260831020934 | 64 | 234 | 1.0 | 7.0 | 0.00 | 0.26 | 0.25 | 74 | 1016.5 |
| 20260831020013 | 64 | 232 | 0.0 | 6.0 | 0.00 | 0.26 | 0.25 | 76 | 1016.5 |
| 20260831015413 | 63 | 230 | 2.0 | 11.0 | 0.00 | 0.26 | 0.25 | 76 | 1016.5 |
| 20260831014534 | 63 | 225 | 3.0 | 12.0 | 0.00 | 0.26 | 0.25 | 77 | 1016.5 |
| 20260831013613 | 62 | 240 | 1.0 | 10.0 | 0.01 | 0.26 | 0.25 | 78 | 1016.5 |
| 20260831012713 | 62 | 233 | 1.0 | 7.0 | 0.01 | 0.26 | 0.25 | 80 | 1016.5 |
| 20260831011834 | 61 | 235 | 1.0 | 9.0 | 0.02 | 0.26 | 0.25 | 81 | 1016.5 |
| 20260831010913 | 61 | 226 | 0.0 | 5.0 | 0.05 | 0.26 | 0.25 | 83 | 1016.5 |
| 20260831010013 | 61 | 187 | 1.0 | 5.0 | 0.10 | 0.26 | 0.25 | 84 | 1016.5 |
| 20260831005413 | 61 | 181 | 0.0 | 5.0 | 0.13 | 0.26 | 0.25 | 84 | 1016.5 |
| 20260831004513 | 61 | 180 | 0.0 | 2.0 | 0.18 | 0.26 | 0.25 | 83 | 1016.5 |
| 20260831003613 | 61 | 278 | 0.0 | 1.0 | 0.19 | 0.25 | 0.24 | 83 | 1016.5 |
| 20260831002713 | 61 | 9 | 0.0 | 3.0 | 0.19 | 0.25 | 0.24 | 81 | 1016.5 |
| 20260831001813 | 62 | 291 | 1.0 | 12.0 | 0.18 | 0.24 | 0.23 | 79 | 1016.5 |
| 20260831000913 | 63 | 261 | 5.0 | 21.0 | 0.15 | 0.21 | 0.20 | 76 | 1016.5 |
| 20260831000013 | 66 | 293 | 9.0 | 25.0 | 0.10 | 0.16 | 0.15 | 68 | 1016.5 |
| 20260830235413 | 71 | 301 | 4.0 | 23.0 | 0.07 | 0.13 | 0.13 | 59 | 1016.5 |
| 20260830234513 | 75 | 0 | 0.0 | 0.0 | 0.02 | 0.08 | 0.07 | 60 | 1016.5 |
| 20260830233613 | 76 | 0 | 0.0 | 0.0 | 0.00 | 0.06 | 0.05 | 47 | 1016.5 |
| 20260830232713 | 76 | 0 | 0.0 | 0.0 | 0.00 | 0.06 | 0.05 | 44 | 1016.5 |
| 20260830231813 | 76 | 196 | 1.0 | 6.0 | 0.00 | 0.06 | 0.05 | 43 | 1016.5 |
| 20260830230913 | 76 | 197 | 5.0 | 9.0 | 0.00 | 0.06 | 0.05 | 42 | 1016.5 |
| 20260830230013 | 77 | 199 | 3.0 | 8.0 | 0.00 | 0.06 | 0.05 | 43 | 1016.5 |
| 20260830225413 | 77 | 200 | 3.0 | 8.0 | 0.00 | 0.06 | 0.05 | 42 | 1016.5 |
| 20260830224513 | 78 | 194 | 1.0 | 7.0 | 0.00 | 0.06 | 0.05 | 43 | 1016.5 |
| 20260830223613 | 78 | 192 | 3.0 | 9.0 | 0.00 | 0.06 | 0.05 | 43 | 1016.5 |
| 20260830222713 | 78 | 200 | 1.0 | 7.0 | 0.00 | 0.06 | 0.05 | 42 | 1016.5 |
| 20260830221813 | 78 | 199 | 3.0 | 8.0 | 0.00 | 0.06 | 0.05 | 41 | 1016.5 |
| 20260830220913 | 78 | 77 | 1.0 | 8.0 | 0.00 | 0.06 | 0.05 | 41 | 1016.5 |
| 20260830220013 | 78 | 68 | 3.0 | 9.0 | 0.00 | 0.06 | 0.05 | 40 | 1016.5 |
| 20260830215413 | 78 | 184 | 1.0 | 7.0 | 0.00 | 0.06 | 0.05 | 42 | 1016.5 |
| 20260830214513 | 79 | 128 | 2.0 | 6.0 | 0.00 | 0.06 | 0.05 | 42 | 1016.5 |
| 20260830213613 | 78 | 55 | 2.0 | 11.0 | 0.00 | 0.06 | 0.05 | 44 | 1016.5 |
| 20260830212713 | 78 | 194 | 4.0 | 11.0 | 0.00 | 0.06 | 0.05 | 44 | 1016.5 |
| 20260830211813 | 78 | 103 | 2.0 | 12.0 | 0.00 | 0.06 | 0.05 | 43 | 1016.5 |
| 20260830210913 | 79 | 71 | 3.0 | 12.0 | 0.00 | 0.06 | 0.05 | 43 | 1016.5 |
| 20260830210013 | 80 | 56 | 3.0 | 13.0 | 0.00 | 0.06 | 0.05 | 42 | 1016.5 |
| 20260830205413 | 79 | 66 | 1.0 | 7.0 | 0.00 | 0.06 | 0.05 | 42 | 1016.5 |
| 20260830204513 | 78 | 62 | 4.0 | 12.0 | 0.00 | 0.06 | 0.05 | 41 | 1016.5 |
| 20260830203613 | 78 | 58 | 1.0 | 5.0 | 0.00 | 0.06 | 0.05 | 41 | 1016.5 |
| 20260830202713 | 78 | 57 | 1.0 | 7.0 | 0.00 | 0.06 | 0.05 | 41 | 1016.5 |
| 20260830201813 | 77 | 66 | 3.0 | 10.0 | 0.00 | 0.06 | 0.05 | 42 | 1016.5 |
| 20260830200913 | 77 | 114 | 2.0 | 9.0 | 0.00 | 0.06 | 0.05 | 44 | 1016.5 |
| 20260830200013 | 77 | 68 | 2.0 | 9.0 | 0.00 | 0.06 | 0.05 | 43 | 1016.5 |
| 20260830195413 | 76 | 70 | 2.0 | 9.0 | 0.00 | 0.06 | 0.05 | 43 | 1016.5 |
| 20260830194513 | 76 | 64 | 2.0 | 7.0 | 0.00 | 0.06 | 0.05 | 44 | 1016.5 |
| 20260830193613 | 75 | 75 | 3.0 | 9.0 | 0.00 | 0.06 | 0.05 | 45 | 1016.5 |
| 20260830192713 | 74 | 78 | 2.0 | 9.0 | 0.00 | 0.06 | 0.05 | 48 | 1016.5 |
| 20260830191813 | 74 | 75 | 1.0 | 7.0 | 0.00 | 0.06 | 0.05 | 48 | 1016.5 |
| 20260830190913 | 73 | 75 | 0.0 | 4.0 | 0.00 | 0.06 | 0.05 | 51 | 1016.5 |
| 20260830190013 | 72 | 0 | 0.0 | 2.0 | 0.00 | 0.06 | 0.05 | 53 | 1016.5 |
| 20260830185413 | 71 | 0 | 0.0 | 0.0 | 0.00 | 0.06 | 0.05 | 56 | 1016.5 |
| 20260830184513 | 71 | 0 | 0.0 | 0.0 | 0.00 | 0.06 | 0.05 | 60 | 1016.5 |
| 20260830183634 | 70 | 75 | 0.0 | 4.0 | 0.00 | 0.06 | 0.05 | 60 | 1016.5 |
| 20260830182713 | 68 | 0 | 0.0 | 0.0 | 0.00 | 0.06 | 0.05 | 63 | 1016.5 |
| 20260830181813 | 68 | 75 | 0.0 | 5.0 | 0.00 | 0.06 | 0.05 | 62 | 1016.5 |
| 20260830180934 | 68 | 42 | 1.0 | 5.0 | 0.00 | 0.06 | 0.05 | 66 | 1016.5 |
| 20260830180034 | 67 | 33 | 0.0 | 4.0 | 0.00 | 0.06 | 0.05 | 70 | 1016.5 |
| 20260830175413 | 66 | 0 | 0.0 | 1.0 | 0.00 | 0.06 | 0.05 | 71 | 1016.5 |
| 20260830174534 | 66 | 248 | 0.0 | 1.0 | 0.00 | 0.06 | 0.05 | 72 | 1016.5 |
| 20260830173634 | 66 | 3 | 1.0 | 9.0 | 0.00 | 0.06 | 0.05 | 74 | 1016.5 |
| 20260830172713 | 66 | 12 | 2.0 | 8.0 | 0.00 | 0.06 | 0.05 | 73 | 1016.5 |
| 20260830171834 | 67 | 357 | 1.0 | 7.0 | 0.00 | 0.06 | 0.05 | 71 | 1016.5 |
| 20260830170913 | 68 | 338 | 1.0 | 11.0 | 0.00 | 0.06 | 0.05 | 67 | 1016.5 |
| 20260830170013 | 68 | 351 | 3.0 | 11.0 | 0.00 | 0.06 | 0.05 | 71 | 1016.5 |
| 20260830165413 | 68 | 339 | 4.0 | 11.0 | 0.00 | 0.06 | 0.05 | 69 | 1016.5 |
| 20260830164513 | 68 | 337 | 2.0 | 10.0 | 0.00 | 0.06 | 0.05 | 69 | 1016.5 |
| 20260830163613 | 68 | 355 | 1.0 | 6.0 | 0.00 | 0.06 | 0.05 | 72 | 1016.5 |
| 20260830162713 | 68 | 336 | 1.0 | 9.0 | 0.00 | 0.06 | 0.05 | 72 | 1016.5 |
| 20260830161813 | 68 | 355 | 1.0 | 9.0 | 0.00 | 0.06 | 0.05 | 71 | 1016.5 |
| 20260830160913 | 68 | 338 | 1.0 | 5.0 | 0.00 | 0.06 | 0.05 | 72 | 1016.5 |
| 20260830160013 | 68 | 332 | 1.0 | 5.0 | 0.00 | 0.06 | 0.05 | 71 | 1016.5 |
| 20260830155413 | 68 | 332 | 0.0 | 5.0 | 0.00 | 0.06 | 0.05 | 71 | 1016.5 |
| 20260830154534 | 68 | 331 | 0.0 | 4.0 | 0.00 | 0.06 | 0.05 | 73 | 1016.5 |
| 20260830153613 | 67 | 327 | 1.0 | 5.0 | 0.00 | 0.06 | 0.05 | 74 | 1016.5 |
| 20260830152713 | 67 | 322 | 1.0 | 5.0 | 0.00 | 0.06 | 0.05 | 76 | 1016.5 |
| 20260830151813 | 66 | 303 | 1.0 | 5.0 | 0.00 | 0.06 | 0.05 | 78 | 1016.5 |
| 20260830150913 | 66 | 317 | 1.0 | 10.0 | 0.00 | 0.06 | 0.05 | 78 | 1016.5 |
| 20260830150013 | 66 | 345 | 1.0 | 8.0 | 0.00 | 0.06 | 0.05 | 79 | 1016.5 |
| 20260830145413 | 66 | 350 | 1.0 | 8.0 | 0.00 | 0.06 | 0.05 | 77 | 1016.5 |
| 20260830144513 | 66 | 329 | 0.0 | 2.0 | 0.00 | 0.06 | 0.05 | 75 | 1016.5 |
| 20260830143613 | 66 | 0 | 0.0 | 0.0 | 0.00 | 0.06 | 0.05 | 72 | 1016.5 |
| 20260830142713 | 66 | 0 | 0.0 | 0.0 | 0.00 | 0.06 | 0.05 | 74 | 1016.5 |
| 20260830141813 | 66 | 215 | 1.0 | 6.0 | 0.00 | 0.06 | 0.05 | 71 | 1016.5 |
| 20260830140934 | 65 | 211 | 3.0 | 8.0 | 0.00 | 0.06 | 0.05 | 73 | 1016.5 |
| 20260830140013 | 64 | 209 | 0.0 | 8.0 | 0.00 | 0.06 | 0.05 | 77 | 1016.5 |
| 20260830135413 | 64 | 210 | 0.0 | 6.0 | 0.00 | 0.06 | 0.05 | 78 | 1016.5 |
| 20260830134513 | 63 | 209 | 1.0 | 7.0 | 0.00 | 0.06 | 0.05 | 78 | 1016.5 |
| 20260830133613 | 63 | 211 | 0.0 | 4.0 | 0.00 | 0.06 | 0.05 | 81 | 1016.5 |
| 20260830132713 | 63 | 0 | 0.0 | 0.0 | 0.00 | 0.06 | 0.05 | 80 | 1016.5 |
| 20260830131813 | 63 | 0 | 0.0 | 0.0 | 0.00 | 0.06 | 0.05 | 80 | 1016.5 |
| 20260830130934 | 63 | 195 | 2.0 | 7.0 | 0.00 | 0.06 | 0.05 | 80 | 1016.5 |
| 20260830130034 | 62 | 207 | 2.0 | 8.0 | 0.00 | 0.06 | 0.05 | 83 | 1016.5 |
| 20260830125413 | 61 | 201 | 1.0 | 6.0 | 0.00 | 0.06 | 0.05 | 86 | 1016.5 |
| 20260830124513 | 61 | 0 | 0.0 | 0.0 | 0.00 | 0.06 | 0.05 | 87 | 1016.5 |
| 20260830123613 | 61 | 0 | 0.0 | 0.0 | 0.00 | 0.06 | 0.05 | 87 | 1016.5 |
| 20260830122734 | 61 | 0 | 0.0 | 0.0 | 0.00 | 0.06 | 0.05 | 87 | 1016.5 |
| 20260830121813 | 61 | 0 | 0.0 | 0.0 | 0.01 | 0.06 | 0.05 | 86 | 1016.5 |
| 20260830120934 | 61 | 0 | 0.0 | 0.0 | 0.02 | 0.06 | 0.05 | 85 | 1016.5 |
| 20260830120034 | 62 | 0 | 0.0 | 0.0 | 0.02 | 0.06 | 0.05 | 84 | 1016.5 |
| 20260830115413 | 62 | 0 | 0.0 | 0.0 | 0.02 | 0.06 | 0.05 | 85 | 1016.5 |
| 20260830114513 | 62 | 0 | 0.0 | 0.0 | 0.05 | 0.06 | 0.05 | 84 | 1016.5 |
| 20260830113634 | 63 | 0 | 0.0 | 0.0 | 0.05 | 0.06 | 0.05 | 84 | 1016.5 |
| 20260830112713 | 63 | 0 | 0.0 | 0.0 | 0.05 | 0.06 | 0.05 | 82 | 1016.5 |
| 20260830111813 | 63 | 0 | 0.0 | 0.0 | 0.04 | 0.05 | 0.04 | 81 | 1016.5 |
| 20260830110934 | 64 | 0 | 0.0 | 0.0 | 0.03 | 0.04 | 0.03 | 79 | 1016.5 |
| 20260830110013 | 65 | 0 | 0.0 | 0.0 | 0.03 | 0.04 | 0.03 | 76 | 1016.5 |
| 20260830105413 | 65 | 202 | 0.0 | 1.0 | 0.03 | 0.04 | 0.03 | 71 | 1016.5 |
| 20260830104513 | 65 | 0 | 0.0 | 0.0 | 0.00 | 0.01 | 0.00 | 65 | 1016.5 |
| 20260830103634 | 65 | 0 | 0.0 | 0.0 | 0.00 | 0.01 | 0.00 | 64 | 1016.5 |
| 20260830102734 | 65 | 0 | 0.0 | 0.0 | 0.00 | 0.01 | 0.00 | 65 | 1016.5 |
| 20260830101813 | 65 | 0 | 0.0 | 0.0 | 0.00 | 0.01 | 0.00 | 64 | 1016.5 |
| 20260830100913 | 65 | 0 | 0.0 | 0.0 | 0.00 | 0.01 | 0.00 | 64 | 1016.5 |
| 20260830100034 | 65 | 182 | 0.0 | 5.0 | 0.00 | 0.01 | 0.00 | 65 | 1016.5 |
| 20260830095413 | 64 | 176 | 0.0 | 5.0 | 0.00 | 0.01 | 0.00 | 66 | 1016.5 |
| 20260830094513 | 65 | 173 | 0.0 | 2.0 | 0.00 | 0.01 | 0.00 | 66 | 1016.5 |
| 20260830093613 | 65 | 0 | 0.0 | 0.0 | 0.00 | 0.01 | 0.00 | 65 | 1016.5 |
| 20260830092713 | 66 | 0 | 0.0 | 1.0 | 0.00 | 0.01 | 0.00 | 64 | 1016.5 |
| 20260830091813 | 66 | 0 | 0.0 | 1.0 | 0.00 | 0.01 | 0.00 | 63 | 1016.5 |
| 20260830090913 | 66 | 0 | 0.0 | 0.0 | 0.00 | 0.01 | 0.00 | 63 | 1016.5 |
| 20260830090013 | 66 | 0 | 0.0 | 0.0 | 0.00 | 0.01 | 0.00 | 63 | 1016.5 |
| 20260830085413 | 66 | 0 | 0.0 | 1.0 | 0.00 | 0.01 | 0.00 | 63 | 1016.5 |
| 20260830084513 | 65 | 186 | 0.0 | 1.0 | 0.00 | 0.01 | 0.00 | 65 | 1016.5 |
| 20260830083634 | 65 | 186 | 0.0 | 5.0 | 0.00 | 0.01 | 0.00 | 67 | 1016.5 |
| 20260830082713 | 64 | 184 | 0.0 | 2.0 | 0.00 | 0.01 | 0.00 | 69 | 1016.5 |
| 20260830081813 | 65 | 184 | 0.0 | 2.0 | 0.00 | 0.01 | 0.00 | 69 | 1016.5 |
| 20260830080913 | 65 | 0 | 0.0 | 0.0 | 0.00 | 0.01 | 0.00 | 68 | 1016.5 |
| 20260830080013 | 65 | 0 | 0.0 | 0.0 | 0.00 | 0.01 | 0.00 | 68 | 1016.5 |
| 20260830075413 | 65 | 0 | 0.0 | 0.0 | 0.00 | 0.01 | 0.00 | 67 | 1016.5 |
| 20260830074513 | 66 | 0 | 0.0 | 0.0 | 0.00 | 0.01 | 0.00 | 66 | 1016.5 |
| 20260830073613 | 66 | 0 | 0.0 | 1.0 | 0.00 | 0.01 | 0.00 | 66 | 1016.5 |
| 20260830072734 | 66 | 0 | 0.0 | 1.0 | 0.00 | 0.01 | 0.00 | 67 | 1016.5 |
| 20260830071813 | 66 | 0 | 0.0 | 1.0 | 0.00 | 0.01 | 0.00 | 67 | 1016.5 |
| 20260830070913 | 67 | 0 | 0.0 | 0.0 | 0.00 | 0.01 | 0.00 | 65 | 1016.5 |
| 20260830070013 | 67 | 0 | 0.0 | 0.0 | 0.00 | 0.01 | 0.00 | 64 | 1016.5 |
| 20260830065413 | 68 | 184 | 0.0 | 4.0 | 0.00 | 0.01 | 0.00 | 62 | 1016.5 |
| 20260830064513 | 68 | 0 | 0.0 | 1.0 | 0.00 | 0.01 | 0.00 | 62 | 1016.5 |
| 20260830063613 | 67 | 0 | 0.0 | 1.0 | 0.00 | 0.01 | 0.00 | 63 | 1016.5 |
| 20260830062713 | 67 | 0 | 0.0 | 0.0 | 0.00 | 0.01 | 0.00 | 63 | 1016.5 |
| 20260830061813 | 67 | 0 | 0.0 | 0.0 | 0.00 | 0.01 | 0.00 | 62 | 1016.5 |
| 20260830060913 | 67 | 0 | 0.0 | 0.0 | 0.00 | 0.01 | 0.00 | 63 | 1016.5 |
| 20260830060013 | 67 | 186 | 0.0 | 4.0 | 0.00 | 0.01 | 0.00 | 65 | 1016.5 |
| 20260830055413 | 66 | 186 | 0.0 | 4.0 | 0.00 | 0.01 | 0.01 | 66 | 1016.5 |
| 20260830054513 | 66 | 186 | 0.0 | 5.0 | 0.00 | 0.01 | 0.01 | 69 | 1016.5 |
| 20260830053634 | 66 | 185 | 1.0 | 9.0 | 0.00 | 0.01 | 0.01 | 70 | 1016.5 |